Regional Weather Roundup
Issued by NWS

Home | Current Version | Previous Version | Text Only | Print | Product List | Glossary Off
Versions: 1 2 3 4 5 6 7 8 9 10 11 12 13 14 15 16 17 18 19 20 21 22 23 24 25 26 27 28 29 30 31 32 33 34 35 36 37 38 39 40 41 42 43 44 45 46 47 48 49 50

000
ASUS43 KMKX 032021
RWRWI

WISCONSIN REGIONAL WEATHER ROUNDUP
NATIONAL WEATHER SERVICE MILWAUKEE/SULLIVAN WI
300 PM CDT WED JUN 03 2015

NOTE: "FAIR" INDICATES FEW OR NO CLOUDS BELOW 12,000 FEET WITH NO
SIGNIFICANT WEATHER AND/OR OBSTRUCTIONS TO VISIBILITY.

WIZ001-002-006>008-014>016-023>028-032100-
NORTHWEST WISCONSIN

CITY           SKY/WX    TMP DP  RH WIND       PRES   REMARKS
SUPERIOR ARPT  CLOUDY    55  53  93 N3        29.90F
ASHLAND        CLOUDY    64  58  80 CALM      29.91R
HAYWARD        CLOUDY    68  56  65 S13       29.92F
SIREN          RAIN      66  58  74 S9        29.90F
CUMBERLAND     LGT RAIN  61  55  82 W5        29.93S
RICE LAKE      RAIN      67  56  68 SE3       29.92F
CHETEK         CLOUDY    67  59  73 E5        29.91F
LADYSMITH      CLOUDY    70  58  66 S6        29.94F
EAU CLAIRE     CLOUDY    71  56  58 S8        29.90F
MENOMONIE      TSTM      64  62  92 W3        29.91R
NEW RICHMOND   LGT RAIN  62  61  99 CALM      29.91F
OSCEOLA        RAIN      63  63 100 SE8       29.92F
$$

WIZ003>005-009-010-017-018-032100-
NORTH CENTRAL WISCONSIN

CITY           SKY/WX    TMP DP  RH WIND       PRES   REMARKS
MANITOWISH WTR PTSUNNY   73  54  51 S10G18    29.93S
ARBOR VITAE    PTSUNNY   74  52  45 S12G24    29.94R
WOODRUFF       PTSUNNY   74  52  45 S12G24    29.94R
RHINELANDER    PTSUNNY   74  52  46 SW12G23   29.96R
EAGLE RIVER    PTSUNNY   74  50  42 S10G18    29.94S
LAND O LAKES   CLOUDY    76  49  38 S10G18    29.94S
PHILLIPS       CLOUDY    72  56  57 S12G17    29.93S
TOMAHAWK       PTSUNNY   71  55  57 S6        29.94F
MEDFORD        CLOUDY    70  56  61 S13G20    29.95R
MERRILL        PTSUNNY   74  56  53 SW13G20   29.94F
$$

WIZ029-030-035-036-043>047-032100-
CENTRAL WISCONSIN

CITY           SKY/WX    TMP DP  RH WIND       PRES   REMARKS
WAUSAU         PTSUNNY   75  55  49 S10G23    29.92F
MOSINEE        MOSUNNY   73  55  53 S15       29.95F
MARSHFIELD     CLOUDY    73  56  54 S17G23    29.93S
STEVENS POINT  PTSUNNY   74  53  48 S10G18    29.96S
WAUPACA        PTSUNNY   76  55  46 S10G16    29.96S
WAUTOMA        PTSUNNY   77  55  46 S12       29.96S
WISC RAPIDS    CLOUDY    76  54  46 S15G21    29.94F
CAMP DOUGLAS   CLOUDY    73  61  64 S12G18    29.94S
$$

WIZ011>013-019>022-031-037>040-048>050-032100-
NORTHEAST WISCONSIN

CITY           SKY/WX    TMP DP  RH WIND       PRES   REMARKS
ANTIGO         CLOUDY    69  56  63 S15       29.97F
SHAWANO        CLOUDY    74  52  46 S6        29.97F
OCONTO         MOSUNNY   71  50  47 S13G20    29.99S
STURGEON BAY   MOSUNNY   64  46  52 S16       30.04S
GREEN BAY      PTSUNNY   74  47  38 S16       29.99S
MANITOWOC      MOSUNNY   61  48  62 S12       30.03F
APPLETON       MOSUNNY   73  52  46 SE14G20   29.99S
CLINTONVILLE   PTSUNNY   73  54  49 S12       29.97S
OSHKOSH        MOSUNNY   76  54  46 S15G22    29.97F
$$

WIZ032>034-041-042-053>061-032100-
SOUTHWEST WISCONSIN

CITY           SKY/WX    TMP DP  RH WIND       PRES   REMARKS
LA CROSSE      CLOUDY    75  58  55 S10       29.90F
SPARTA         CLOUDY    74  55  52 S10       29.93S
VIROQUA        CLOUDY    75  56  50 SE16G22   29.93F
BOSCOBEL       PTSUNNY   78  57  48 MISG      29.93S
PRAIRIE DU CHI CLOUDY    76  54  45 S8        29.91S
PLATTEVILLE    MOSUNNY   77  58  52 S17G23    29.95S
$$

WIZ056-057-062-063-064-067-068-032100-
SOUTH CENTRAL WISCONSIN

CITY           SKY/WX    TMP DP  RH WIND       PRES   REMARKS
REEDSBURG      CLOUDY    74  58  58 S8        29.94F
BARABOO/DELLS  CLOUDY    73  57  57 S13G20    29.95F
LONE ROCK      PTSUNNY   76  56  49 S14       29.94F
MINERAL POINT  PTSUNNY   77  54  44 S12       29.95F
MADISON        CLOUDY    76  56  49 S14       29.96F
MIDDLETON      PTSUNNY   76  54  45 S10G16    29.97S
WATERTOWN      MOSUNNY   74  56  54 SE10      29.98F
MONROE         PTSUNNY   73  57  56 S15       29.97F
JANESVILLE     MOSUNNY   79  55  44 S12G17    29.98S
$$

WIZ051-052-058>065-066-070>072-032100-
SOUTHEAST WISCONSIN

CITY           SKY/WX    TMP DP  RH WIND       PRES   REMARKS
MILWAUKEE      PTSUNNY   64  50  60 SE16      30.02F
WAUKESHA       MOSUNNY   72  52  49 SE9       30.01S
MILWAUKEE/TIMM SUNNY     68  46  45 SE14G20   30.02F
RACINE         SUNNY     65  51  60 SE10      30.04F
BURLINGTON     MOSUNNY   76  53  46 SW5       30.00S
KENOSHA        MOSUNNY   69  53  56 SE13      30.02F
FOND DU LAC    MOSUNNY   74  53  48 SE17G24   29.97F
SHEBOYGAN      MOSUNNY   65  51  60 SE10      30.03S
WEST BEND      MOSUNNY   68  50  52 SE12      30.01F
JUNEAU         PTSUNNY   73  55  52 S13G20    29.99F
$$

LSZ147-162-032100-
LAKE SUPERIOR

STATION/POSITION TIME  TEMP    WIND        PRES    WAVE
                       AIR SEA DIR/SP/G            HT/PER
                 (UTC) (F)     (DEG/KT/KT) (MB)    (FT/S)
W MID LAKE BUOY  1950   41 37   60/  6/  8   N/A     1
DEVILS ISLAND    2000   47      80/  7/  8   N/A
PORT WING        1940   49     350/  1/  4   N/A
SAXON HARBOR     1900   58        CALM       N/A
$$

LMZ867-665-643>646-032100-
LAKE MICHIGAN

STATION/POSITION TIME  TEMP    WIND        PRES    WAVE
                       AIR SEA DIR/SP/G            HT/PER
                 (UTC) (F)     (DEG/KT/KT) (MB)    (FT/S)
CHAMBERS ISLAND  1900   68     150/  8/ 14   N/A
N MID LAKE BUOY  1950   43 37  240/  6/  6   N/A     1/ 3
NORTHPORT PIER   1900   64     170/  6/ 16   N/A
SISTER BAY       1933   69     180/ 20/ 23   N/A
ALGOMA LAKESHORE 1909          210/ 15/ 16   N/A
KEWAUNEE LAKESHO 1900   50     180/ 12/ 14   N/A
SHEBOYGAN LAKESH 2000   48     170/ 11/ 12   N/A
PORT WASHINGTON  1940   54     170/  6/  7   N/A
ATWATER BUOY     2000   50 50  150/  8/ 10   N/A
MILWAUKEE LAKESH 2000   52     100/  3/  5   N/A
S MID LAKE BUOY  1950   53 39  170/  4/  4   N/A     0
KENOSHA   LAKESH 2000   55     160/  6/  7   N/A
$$

TC  - TEMPERATURE IN CELSIUS
VSB - VISIBILITY IN STATUTE MILES
WCI - WIND CHILL INDEX
HX  - HEAT INDEX



USA.gov is the U.S. government's official web portal to all federal, state and local government web resources and services.